Year,Month,Day,Hour,Minute,Value (Times are PST for insolation in W/m^2)
2005,06,22,00,00,0.00
2005,06,22,00,01,0.00
2005,06,22,00,02,0.00
2005,06,22,00,03,0.00
2005,06,22,00,04,0.00
2005,06,22,00,05,0.00
2005,06,22,00,06,0.00
2005,06,22,00,07,0.00
2005,06,22,00,08,0.00
2005,06,22,00,09,0.00
2005,06,22,00,10,0.00
2005,06,22,00,11,0.00
2005,06,22,00,12,0.00
2005,06,22,00,13,0.00
2005,06,22,00,14,0.00
2005,06,22,00,15,0.00
2005,06,22,00,16,0.00
2005,06,22,00,17,0.00
2005,06,22,00,18,0.00
2005,06,22,00,19,0.00
2005,06,22,00,20,0.00
2005,06,22,00,21,0.00
2005,06,22,00,22,0.00
2005,06,22,00,23,0.00
2005,06,22,00,24,0.00
2005,06,22,00,25,0.00
2005,06,22,00,26,0.00
2005,06,22,00,27,0.00
2005,06,22,00,28,0.00
2005,06,22,00,29,0.00
2005,06,22,00,30,0.00
2005,06,22,00,31,0.00
2005,06,22,00,32,0.00
2005,06,22,00,33,0.00
2005,06,22,00,34,0.00
2005,06,22,00,35,0.00
2005,06,22,00,36,0.00
2005,06,22,00,37,0.00
2005,06,22,00,38,0.00
2005,06,22,00,39,0.00
2005,06,22,00,40,0.00
2005,06,22,00,41,0.00
2005,06,22,00,42,0.00
2005,06,22,00,43,0.00
2005,06,22,00,44,0.00
2005,06,22,00,45,0.00
2005,06,22,00,46,0.00
2005,06,22,00,47,0.00
2005,06,22,00,48,0.00
2005,06,22,00,49,0.00
2005,06,22,00,50,0.00
2005,06,22,00,51,0.00
2005,06,22,00,52,0.00
2005,06,22,00,53,0.00
2005,06,22,00,54,0.00
2005,06,22,00,55,0.00
2005,06,22,00,56,0.00
2005,06,22,00,57,0.00
2005,06,22,00,58,0.00
2005,06,22,00,59,0.00
2005,06,22,01,00,0.00
2005,06,22,01,01,0.00
2005,06,22,01,02,0.00
2005,06,22,01,03,0.00
2005,06,22,01,04,0.00
2005,06,22,01,05,0.00
2005,06,22,01,06,0.00
2005,06,22,01,07,0.00
2005,06,22,01,08,0.00
2005,06,22,01,09,0.00
2005,06,22,01,10,0.00
2005,06,22,01,11,0.00
2005,06,22,01,12,0.00
2005,06,22,01,13,0.00
2005,06,22,01,14,0.00
2005,06,22,01,15,0.00
2005,06,22,01,16,0.00
2005,06,22,01,17,0.00
2005,06,22,01,18,0.00
2005,06,22,01,19,0.00
2005,06,22,01,20,0.00
2005,06,22,01,21,0.00
2005,06,22,01,22,0.00
2005,06,22,01,23,0.00
2005,06,22,01,24,0.00
2005,06,22,01,25,0.00
2005,06,22,01,26,0.00
2005,06,22,01,27,0.00
2005,06,22,01,28,0.00
2005,06,22,01,29,0.00
2005,06,22,01,30,0.00
2005,06,22,01,31,0.00
2005,06,22,01,32,0.00
2005,06,22,01,33,0.00
2005,06,22,01,34,0.00
2005,06,22,01,35,0.00
2005,06,22,01,36,0.00
2005,06,22,01,37,0.00
2005,06,22,01,38,0.00
2005,06,22,01,39,0.00
2005,06,22,01,40,0.00
2005,06,22,01,41,0.00
2005,06,22,01,42,0.00
2005,06,22,01,43,0.00
2005,06,22,01,44,0.00
2005,06,22,01,45,0.00
2005,06,22,01,46,0.00
2005,06,22,01,47,0.00
2005,06,22,01,48,0.00
2005,06,22,01,49,0.00
2005,06,22,01,50,0.00
2005,06,22,01,51,0.00
2005,06,22,01,52,0.00
2005,06,22,01,53,0.00
2005,06,22,01,54,0.00
2005,06,22,01,55,0.00
2005,06,22,01,56,0.00
2005,06,22,01,57,0.00
2005,06,22,01,58,0.00
2005,06,22,01,59,0.00
2005,06,22,02,00,0.00
2005,06,22,02,01,0.00
2005,06,22,02,02,0.00
2005,06,22,02,03,0.00
2005,06,22,02,04,0.00
2005,06,22,02,05,0.00
2005,06,22,02,06,0.00
2005,06,22,02,07,0.00
2005,06,22,02,08,0.00
2005,06,22,02,09,0.00
2005,06,22,02,10,0.00
2005,06,22,02,11,0.00
2005,06,22,02,12,0.00
2005,06,22,02,13,0.00
2005,06,22,02,14,0.00
2005,06,22,02,15,0.00
2005,06,22,02,16,0.00
2005,06,22,02,17,0.00
2005,06,22,02,18,0.00
2005,06,22,02,19,0.00
2005,06,22,02,20,0.00
2005,06,22,02,21,0.00
2005,06,22,02,22,0.00
2005,06,22,02,23,0.00
2005,06,22,02,24,0.00
2005,06,22,02,25,0.00
2005,06,22,02,26,0.00
2005,06,22,02,27,0.00
2005,06,22,02,28,0.00
2005,06,22,02,29,0.00
2005,06,22,02,30,0.00
2005,06,22,02,31,0.00
2005,06,22,02,32,0.00
2005,06,22,02,33,0.00
2005,06,22,02,34,0.00
2005,06,22,02,35,0.00
2005,06,22,02,36,0.00
2005,06,22,02,37,0.00
2005,06,22,02,38,0.00
2005,06,22,02,39,0.00
2005,06,22,02,40,0.00
2005,06,22,02,41,0.00
2005,06,22,02,42,0.00
2005,06,22,02,43,0.00
2005,06,22,02,44,0.00
2005,06,22,02,45,0.00
2005,06,22,02,46,0.00
2005,06,22,02,47,0.00
2005,06,22,02,48,0.00
2005,06,22,02,49,0.00
2005,06,22,02,50,0.00
2005,06,22,02,51,0.00
2005,06,22,02,52,0.00
2005,06,22,02,53,0.00
2005,06,22,02,54,0.00
2005,06,22,02,55,0.00
2005,06,22,02,56,0.00
2005,06,22,02,57,0.00
2005,06,22,02,58,0.00
2005,06,22,02,59,0.00
2005,06,22,03,00,0.00
2005,06,22,03,01,0.00
2005,06,22,03,02,0.00
2005,06,22,03,03,0.00
2005,06,22,03,04,0.00
2005,06,22,03,05,0.00
2005,06,22,03,06,0.00
2005,06,22,03,07,0.00
2005,06,22,03,08,0.00
2005,06,22,03,09,0.00
2005,06,22,03,10,0.00
2005,06,22,03,11,0.00
2005,06,22,03,12,0.00
2005,06,22,03,13,0.00
2005,06,22,03,14,0.00
2005,06,22,03,15,0.00
2005,06,22,03,16,0.00
2005,06,22,03,17,0.00
2005,06,22,03,18,0.00
2005,06,22,03,19,0.00
2005,06,22,03,20,0.00
2005,06,22,03,21,0.00
2005,06,22,03,22,0.00
2005,06,22,03,23,0.00
2005,06,22,03,24,0.00
2005,06,22,03,25,0.00
2005,06,22,03,26,0.00
2005,06,22,03,27,0.00
2005,06,22,03,28,0.00
2005,06,22,03,29,0.00
2005,06,22,03,30,0.00
2005,06,22,03,31,0.00
2005,06,22,03,32,0.00
2005,06,22,03,33,0.00
2005,06,22,03,34,0.00
2005,06,22,03,35,0.00
2005,06,22,03,36,0.00
2005,06,22,03,37,0.00
2005,06,22,03,38,0.00
2005,06,22,03,39,0.00
2005,06,22,03,40,0.00
2005,06,22,03,41,0.00
2005,06,22,03,42,0.00
2005,06,22,03,43,0.00
2005,06,22,03,44,0.00
2005,06,22,03,45,0.00
2005,06,22,03,46,0.00
2005,06,22,03,47,0.00
2005,06,22,03,48,0.00
2005,06,22,03,49,0.00
2005,06,22,03,50,0.00
2005,06,22,03,51,0.00
2005,06,22,03,52,0.00
2005,06,22,03,53,0.00
2005,06,22,03,54,0.00
2005,06,22,03,55,0.00
2005,06,22,03,56,0.00
2005,06,22,03,57,0.00
2005,06,22,03,58,0.00
2005,06,22,03,59,0.00
2005,06,22,04,00,0.00
2005,06,22,04,01,0.00
2005,06,22,04,02,0.00
2005,06,22,04,03,0.00
2005,06,22,04,04,0.00
2005,06,22,04,05,0.00
2005,06,22,04,06,0.00
2005,06,22,04,07,0.00
2005,06,22,04,08,0.00
2005,06,22,04,09,0.00
2005,06,22,04,10,0.00
2005,06,22,04,11,0.00
2005,06,22,04,12,0.00
2005,06,22,04,13,0.00
2005,06,22,04,14,0.00
2005,06,22,04,15,0.00
2005,06,22,04,16,0.00
2005,06,22,04,17,0.00
2005,06,22,04,18,0.00
2005,06,22,04,19,0.00
2005,06,22,04,20,0.00
2005,06,22,04,21,0.00
2005,06,22,04,22,0.00
2005,06,22,04,23,0.00
2005,06,22,04,24,0.00
2005,06,22,04,25,0.00
2005,06,22,04,26,0.00
2005,06,22,04,27,0.00
2005,06,22,04,28,0.00
2005,06,22,04,29,0.00
2005,06,22,04,30,0.00
2005,06,22,04,31,0.00
2005,06,22,04,32,0.00
2005,06,22,04,33,0.00
2005,06,22,04,34,0.00
2005,06,22,04,35,0.00
2005,06,22,04,36,0.00
2005,06,22,04,37,0.00
2005,06,22,04,38,0.00
2005,06,22,04,39,0.00
2005,06,22,04,40,0.00
2005,06,22,04,41,0.00
2005,06,22,04,42,0.00
2005,06,22,04,43,0.00
2005,06,22,04,44,0.00
2005,06,22,04,45,0.00
2005,06,22,04,46,0.00
2005,06,22,04,47,0.00
2005,06,22,04,48,0.00
2005,06,22,04,49,0.00
2005,06,22,04,50,0.00
2005,06,22,04,51,0.00
2005,06,22,04,52,0.00
2005,06,22,04,53,0.00
2005,06,22,04,54,0.00
2005,06,22,04,55,0.00
2005,06,22,04,56,0.00
2005,06,22,04,57,0.00
2005,06,22,04,58,0.00
2005,06,22,04,59,0.00
2005,06,22,05,00,0.00
2005,06,22,05,01,0.00
2005,06,22,05,02,0.00
2005,06,22,05,03,0.00
2005,06,22,05,04,0.00
2005,06,22,05,05,0.00
2005,06,22,05,06,0.00
2005,06,22,05,07,0.00
2005,06,22,05,08,0.00
2005,06,22,05,09,0.00
2005,06,22,05,10,0.00
2005,06,22,05,11,0.00
2005,06,22,05,12,0.00
2005,06,22,05,13,0.00
2005,06,22,05,14,0.00
2005,06,22,05,15,0.00
2005,06,22,05,16,0.00
2005,06,22,05,17,0.00
2005,06,22,05,18,0.00
2005,06,22,05,19,0.00
2005,06,22,05,20,0.00
2005,06,22,05,21,0.00
2005,06,22,05,22,0.00
2005,06,22,05,23,0.00
2005,06,22,05,24,0.00
2005,06,22,05,25,0.00
2005,06,22,05,26,0.00
2005,06,22,05,27,0.00
2005,06,22,05,28,0.00
2005,06,22,05,29,0.00
2005,06,22,05,30,0.00
2005,06,22,05,31,0.00
2005,06,22,05,32,0.00
2005,06,22,05,33,0.00
2005,06,22,05,34,0.00
2005,06,22,05,35,0.00
2005,06,22,05,36,0.00
2005,06,22,05,37,0.00
2005,06,22,05,38,0.00
2005,06,22,05,39,0.00
2005,06,22,05,40,2.60
2005,06,22,05,41,5.00
2005,06,22,05,42,5.00
2005,06,22,05,43,5.00
2005,06,22,05,44,5.70
2005,06,22,05,45,7.00
2005,06,22,05,46,7.00
2005,06,22,05,47,7.00
2005,06,22,05,48,7.00
2005,06,22,05,49,7.00
2005,06,22,05,50,7.60
2005,06,22,05,51,9.00
2005,06,22,05,52,9.00
2005,06,22,05,53,9.00
2005,06,22,05,54,9.00
2005,06,22,05,55,9.50
2005,06,22,05,56,11.00
2005,06,22,05,57,11.00
2005,06,22,05,58,11.00
2005,06,22,05,59,11.00
2005,06,22,06,00,11.00
2005,06,22,06,01,11.20
2005,06,22,06,02,12.00
2005,06,22,06,03,12.00
2005,06,22,06,04,12.00
2005,06,22,06,05,11.10
2005,06,22,06,06,12.00
2005,06,22,06,07,12.00
2005,06,22,06,08,12.00
2005,06,22,06,09,12.00
2005,06,22,06,10,13.40
2005,06,22,06,11,14.00
2005,06,22,06,12,14.00
2005,06,22,06,13,14.00
2005,06,22,06,14,15.60
2005,06,22,06,15,18.00
2005,06,22,06,16,18.00
2005,06,22,06,17,18.00
2005,06,22,06,18,18.00
2005,06,22,06,19,18.30
2005,06,22,06,20,19.00
2005,06,22,06,21,19.00
2005,06,22,06,22,20.50
2005,06,22,06,23,23.00
2005,06,22,06,24,25.00
2005,06,22,06,25,25.30
2005,06,22,06,26,26.90
2005,06,22,06,27,28.00
2005,06,22,06,28,29.50
2005,06,22,06,29,30.00
2005,06,22,06,30,30.40
2005,06,22,06,31,31.30
2005,06,22,06,32,30.00
2005,06,22,06,33,30.00
2005,06,22,06,34,30.00
2005,06,22,06,35,30.10
2005,06,22,06,36,32.00
2005,06,22,06,37,32.40
2005,06,22,06,38,33.00
2005,06,22,06,39,34.40
2005,06,22,06,40,35.00
2005,06,22,06,41,35.20
2005,06,22,06,42,37.00
2005,06,22,06,43,37.00
2005,06,22,06,44,37.00
2005,06,22,06,45,37.00
2005,06,22,06,46,39.40
2005,06,22,06,47,41.90
2005,06,22,06,48,42.50
2005,06,22,06,49,44.00
2005,06,22,06,50,45.70
2005,06,22,06,51,48.40
2005,06,22,06,52,49.00
2005,06,22,06,53,53.00
2005,06,22,06,54,53.00
2005,06,22,06,55,53.00
2005,06,22,06,56,53.00
2005,06,22,06,57,53.00
2005,06,22,06,58,51.30
2005,06,22,06,59,49.00
2005,06,22,07,00,49.00
2005,06,22,07,01,49.00
2005,06,22,07,02,49.00
2005,06,22,07,03,49.00
2005,06,22,07,04,47.20
2005,06,22,07,05,46.80
2005,06,22,07,06,46.00
2005,06,22,07,07,45.10
2005,06,22,07,08,44.00
2005,06,22,07,09,44.00
2005,06,22,07,10,44.00
2005,06,22,07,11,46.00
2005,06,22,07,12,46.00
2005,06,22,07,13,46.00
2005,06,22,07,14,46.00
2005,06,22,07,15,46.80
2005,06,22,07,16,49.00
2005,06,22,07,17,51.60
2005,06,22,07,18,55.40
2005,06,22,07,19,60.00
2005,06,22,07,20,64.10
2005,06,22,07,21,68.20
2005,06,22,07,22,72.30
2005,06,22,07,23,78.60
2005,06,22,07,24,84.10
2005,06,22,07,25,88.50
2005,06,22,07,26,93.80
2005,06,22,07,27,97.50
2005,06,22,07,28,102.00
2005,06,22,07,29,104.20
2005,06,22,07,30,105.00
2005,06,22,07,31,105.00
2005,06,22,07,32,105.00
2005,06,22,07,33,100.80
2005,06,22,07,34,100.60
2005,06,22,07,35,104.00
2005,06,22,07,36,103.20
2005,06,22,07,37,100.90
2005,06,22,07,38,100.00
2005,06,22,07,39,98.30
2005,06,22,07,40,97.00
2005,06,22,07,41,93.70
2005,06,22,07,42,83.80
2005,06,22,07,43,78.00
2005,06,22,07,44,73.00
2005,06,22,07,45,70.20
2005,06,22,07,46,70.00
2005,06,22,07,47,70.60
2005,06,22,07,48,75.00
2005,06,22,07,49,83.40
2005,06,22,07,50,86.00
2005,06,22,07,51,103.50
2005,06,22,07,52,114.00
2005,06,22,07,53,114.00
2005,06,22,07,54,121.00
2005,06,22,07,55,128.00
2005,06,22,07,56,128.00
2005,06,22,07,57,128.30
2005,06,22,07,58,135.00
2005,06,22,07,59,140.80
2005,06,22,08,00,146.50
2005,06,22,08,01,150.40
2005,06,22,08,02,148.60
2005,06,22,08,03,148.00
2005,06,22,08,04,148.00
2005,06,22,08,05,148.00
2005,06,22,08,06,149.40
2005,06,22,08,07,152.30
2005,06,22,08,08,155.50
2005,06,22,08,09,159.80
2005,06,22,08,10,157.80
2005,06,22,08,11,147.00
2005,06,22,08,12,137.30
2005,06,22,08,13,134.00
2005,06,22,08,14,132.30
2005,06,22,08,15,137.50
2005,06,22,08,16,144.10
2005,06,22,08,17,151.50
2005,06,22,08,18,153.90
2005,06,22,08,19,153.00
2005,06,22,08,20,161.10
2005,06,22,08,21,172.30
2005,06,22,08,22,180.80
2005,06,22,08,23,185.00
2005,06,22,08,24,187.50
2005,06,22,08,25,192.10
2005,06,22,08,26,194.70
2005,06,22,08,27,194.70
2005,06,22,08,28,192.60
2005,06,22,08,29,191.10
2005,06,22,08,30,190.00
2005,06,22,08,31,188.40
2005,06,22,08,32,185.20
2005,06,22,08,33,183.00
2005,06,22,08,34,181.60
2005,06,22,08,35,178.50
2005,06,22,08,36,175.50
2005,06,22,08,37,168.50
2005,06,22,08,38,162.10
2005,06,22,08,39,155.00
2005,06,22,08,40,155.00
2005,06,22,08,41,155.00
2005,06,22,08,42,141.70
2005,06,22,08,43,130.80
2005,06,22,08,44,127.10
2005,06,22,08,45,122.60
2005,06,22,08,46,119.90
2005,06,22,08,47,118.00
2005,06,22,08,48,118.00
2005,06,22,08,49,116.40
2005,06,22,08,50,118.00
2005,06,22,08,51,118.00
2005,06,22,08,52,118.00
2005,06,22,08,53,118.00
2005,06,22,08,54,127.60
2005,06,22,08,55,137.60
2005,06,22,08,56,146.60
2005,06,22,08,57,157.40
2005,06,22,08,58,166.80
2005,06,22,08,59,176.90
2005,06,22,09,00,181.00
2005,06,22,09,01,191.10
2005,06,22,09,02,198.40
2005,06,22,09,03,208.40
2005,06,22,09,04,219.50
2005,06,22,09,05,227.00
2005,06,22,09,06,245.00
2005,06,22,09,07,262.90
2005,06,22,09,08,267.60
2005,06,22,09,09,275.80
2005,06,22,09,10,264.40
2005,06,22,09,11,247.40
2005,06,22,09,12,229.20
2005,06,22,09,13,223.90
2005,06,22,09,14,202.00
2005,06,22,09,15,204.70
2005,06,22,09,16,214.10
2005,06,22,09,17,221.20
2005,06,22,09,18,223.00
2005,06,22,09,19,222.10
2005,06,22,09,20,204.00
2005,06,22,09,21,204.00
2005,06,22,09,22,178.90
2005,06,22,09,23,151.00
2005,06,22,09,24,151.00
2005,06,22,09,25,137.70
2005,06,22,09,26,137.40
2005,06,22,09,27,139.70
2005,06,22,09,28,143.60
2005,06,22,09,29,146.00
2005,06,22,09,30,146.00
2005,06,22,09,31,166.60
2005,06,22,09,32,175.80
2005,06,22,09,33,183.90
2005,06,22,09,34,191.70
2005,06,22,09,35,201.30
2005,06,22,09,36,211.60
2005,06,22,09,37,221.80
2005,06,22,09,38,231.00
2005,06,22,09,39,240.60
2005,06,22,09,40,252.40
2005,06,22,09,41,262.60
2005,06,22,09,42,274.30
2005,06,22,09,43,292.70
2005,06,22,09,44,317.50
2005,06,22,09,45,372.60
2005,06,22,09,46,438.40
2005,06,22,09,47,454.00
2005,06,22,09,48,350.20
2005,06,22,09,49,341.10
2005,06,22,09,50,364.20
2005,06,22,09,51,385.00
2005,06,22,09,52,385.00
2005,06,22,09,53,385.00
2005,06,22,09,54,385.00
2005,06,22,09,55,388.20
2005,06,22,09,56,412.70
2005,06,22,09,57,438.00
2005,06,22,09,58,446.40
2005,06,22,09,59,400.80
2005,06,22,10,00,411.70
2005,06,22,10,01,523.80
2005,06,22,10,02,967.00
2005,06,22,10,03,967.00
2005,06,22,10,04,539.40
2005,06,22,10,05,290.00
2005,06,22,10,06,228.20
2005,06,22,10,07,225.00
2005,06,22,10,08,211.40
2005,06,22,10,09,186.00
2005,06,22,10,10,186.00
2005,06,22,10,11,168.30
2005,06,22,10,12,159.90
2005,06,22,10,13,155.10
2005,06,22,10,14,152.30
2005,06,22,10,15,151.00
2005,06,22,10,16,151.00
2005,06,22,10,17,152.70
2005,06,22,10,18,155.10
2005,06,22,10,19,156.60
2005,06,22,10,20,158.80
2005,06,22,10,21,160.00
2005,06,22,10,22,160.00
2005,06,22,10,23,162.60
2005,06,22,10,24,165.30
2005,06,22,10,25,167.00
2005,06,22,10,26,167.00
2005,06,22,10,27,171.20
2005,06,22,10,28,175.50
2005,06,22,10,29,177.80
2005,06,22,10,30,178.00
2005,06,22,10,31,178.00
2005,06,22,10,32,178.00
2005,06,22,10,33,178.00
2005,06,22,10,34,178.80
2005,06,22,10,35,180.80
2005,06,22,10,36,182.90
2005,06,22,10,37,192.00
2005,06,22,10,38,192.00
2005,06,22,10,39,214.20
2005,06,22,10,40,247.90
2005,06,22,10,41,256.60
2005,06,22,10,42,330.70
2005,06,22,10,43,361.10
2005,06,22,10,44,384.00
2005,06,22,10,45,347.10
2005,06,22,10,46,322.00
2005,06,22,10,47,322.00
2005,06,22,10,48,322.00
2005,06,22,10,49,577.20
2005,06,22,10,50,960.00
2005,06,22,10,51,960.00
2005,06,22,10,52,960.00
2005,06,22,10,53,967.30
2005,06,22,10,54,1038.10
2005,06,22,10,55,1044.80
2005,06,22,10,56,1058.50
2005,06,22,10,57,1001.90
2005,06,22,10,58,891.50
2005,06,22,10,59,956.00
2005,06,22,11,00,956.00
2005,06,22,11,01,1028.00
2005,06,22,11,02,1149.90
2005,06,22,11,03,1173.30
2005,06,22,11,04,1191.80
2005,06,22,11,05,1194.00
2005,06,22,11,06,1194.00
2005,06,22,11,07,1010.40
2005,06,22,11,08,786.00
2005,06,22,11,09,553.60
2005,06,22,11,10,468.50
2005,06,22,11,11,484.40
2005,06,22,11,12,515.20
2005,06,22,11,13,459.60
2005,06,22,11,14,457.00
2005,06,22,11,15,457.00
2005,06,22,11,16,457.50
2005,06,22,11,17,466.00
2005,06,22,11,18,466.00
2005,06,22,11,19,466.00
2005,06,22,11,20,715.00
2005,06,22,11,21,849.00
2005,06,22,11,22,849.00
2005,06,22,11,23,867.10
2005,06,22,11,24,935.00
2005,06,22,11,25,935.00
2005,06,22,11,26,935.00
2005,06,22,11,27,651.00
2005,06,22,11,28,505.50
2005,06,22,11,29,486.50
2005,06,22,11,30,531.10
2005,06,22,11,31,538.00
2005,06,22,11,32,538.00
2005,06,22,11,33,538.00
2005,06,22,11,34,538.00
2005,06,22,11,35,616.80
2005,06,22,11,36,853.00
2005,06,22,11,37,950.90
2005,06,22,11,38,1039.00
2005,06,22,11,39,986.30
2005,06,22,11,40,977.00
2005,06,22,11,41,919.50
2005,06,22,11,42,770.60
2005,06,22,11,43,803.00
2005,06,22,11,44,867.80
2005,06,22,11,45,932.70
2005,06,22,11,46,888.80
2005,06,22,11,47,893.00
2005,06,22,11,48,893.00
2005,06,22,11,49,827.60
2005,06,22,11,50,790.50
2005,06,22,11,51,795.00
2005,06,22,11,52,813.90
2005,06,22,11,53,901.40
2005,06,22,11,54,865.00
2005,06,22,11,55,865.00
2005,06,22,11,56,865.00
2005,06,22,11,57,934.20
2005,06,22,11,58,972.00
2005,06,22,11,59,929.00
2005,06,22,12,00,1001.90
2005,06,22,12,01,1023.00
2005,06,22,12,02,1023.00
2005,06,22,12,03,1023.00
2005,06,22,12,04,1023.00
2005,06,22,12,05,1023.00
2005,06,22,12,06,1023.00
2005,06,22,12,07,787.80
2005,06,22,12,08,687.00
2005,06,22,12,09,687.00
2005,06,22,12,10,799.50
2005,06,22,12,11,1153.40
2005,06,22,12,12,1178.00
2005,06,22,12,13,1178.00
2005,06,22,12,14,1178.00
2005,06,22,12,15,1178.00
2005,06,22,12,16,1178.00
2005,06,22,12,17,1178.00
2005,06,22,12,18,1178.00
2005,06,22,12,19,1178.00
2005,06,22,12,20,874.50
2005,06,22,12,21,884.00
2005,06,22,12,22,884.00
2005,06,22,12,23,884.00
2005,06,22,12,24,884.00
2005,06,22,12,25,1014.90
2005,06,22,12,26,1071.00
2005,06,22,12,27,1043.60
2005,06,22,12,28,888.00
2005,06,22,12,29,735.00
2005,06,22,12,30,565.40
2005,06,22,12,31,578.00
2005,06,22,12,32,540.60
2005,06,22,12,33,534.00
2005,06,22,12,34,534.00
2005,06,22,12,35,534.00
2005,06,22,12,36,534.00
2005,06,22,12,37,534.00
2005,06,22,12,38,624.40
2005,06,22,12,39,635.00
2005,06,22,12,40,635.00
2005,06,22,12,41,606.50
2005,06,22,12,42,589.40
2005,06,22,12,43,587.00
2005,06,22,12,44,584.00
2005,06,22,12,45,584.00
2005,06,22,12,46,584.00
2005,06,22,12,47,630.80
2005,06,22,12,48,627.50
2005,06,22,12,49,554.10
2005,06,22,12,50,541.00
2005,06,22,12,51,541.00
2005,06,22,12,52,541.00
2005,06,22,12,53,541.00
2005,06,22,12,54,475.90
2005,06,22,12,55,448.00
2005,06,22,12,56,448.00
2005,06,22,12,57,448.00
2005,06,22,12,58,448.00
2005,06,22,12,59,448.00
2005,06,22,13,00,448.00
2005,06,22,13,01,1292.10
2005,06,22,13,02,1441.00
2005,06,22,13,03,1441.00
2005,06,22,13,04,1233.80
2005,06,22,13,05,949.00
2005,06,22,13,06,685.20
2005,06,22,13,07,540.00
2005,06,22,13,08,501.80
2005,06,22,13,09,492.00
2005,06,22,13,10,492.00
2005,06,22,13,11,492.00
2005,06,22,13,12,492.00
2005,06,22,13,13,492.00
2005,06,22,13,14,513.90
2005,06,22,13,15,621.40
2005,06,22,13,16,592.70
2005,06,22,13,17,567.30
2005,06,22,13,18,534.50
2005,06,22,13,19,487.60
2005,06,22,13,20,428.50
2005,06,22,13,21,397.00
2005,06,22,13,22,383.00
2005,06,22,13,23,363.50
2005,06,22,13,24,360.50
2005,06,22,13,25,359.20
2005,06,22,13,26,342.00
2005,06,22,13,27,330.00
2005,06,22,13,28,330.00
2005,06,22,13,29,330.00
2005,06,22,13,30,309.50
2005,06,22,13,31,312.50
2005,06,22,13,32,332.40
2005,06,22,13,33,348.20
2005,06,22,13,34,350.00
2005,06,22,13,35,341.00
2005,06,22,13,36,338.00
2005,06,22,13,37,338.00
2005,06,22,13,38,331.90
2005,06,22,13,39,316.20
2005,06,22,13,40,324.00
2005,06,22,13,41,343.40
2005,06,22,13,42,350.00
2005,06,22,13,43,355.70
2005,06,22,13,44,402.80
2005,06,22,13,45,392.30
2005,06,22,13,46,383.00
2005,06,22,13,47,383.00
2005,06,22,13,48,350.70
2005,06,22,13,49,345.50
2005,06,22,13,50,348.00
2005,06,22,13,51,348.00
2005,06,22,13,52,353.80
2005,06,22,13,53,362.50
2005,06,22,13,54,365.10
2005,06,22,13,55,390.50
2005,06,22,13,56,418.40
2005,06,22,13,57,446.10
2005,06,22,13,58,461.60
2005,06,22,13,59,469.70
2005,06,22,14,00,481.80
2005,06,22,14,01,479.40
2005,06,22,14,02,469.00
2005,06,22,14,03,490.40
2005,06,22,14,04,517.60
2005,06,22,14,05,524.00
2005,06,22,14,06,584.30
2005,06,22,14,07,595.40
2005,06,22,14,08,642.00
2005,06,22,14,09,696.00
2005,06,22,14,10,696.00
2005,06,22,14,11,696.00
2005,06,22,14,12,696.00
2005,06,22,14,13,696.00
2005,06,22,14,14,696.00
2005,06,22,14,15,643.50
2005,06,22,14,16,591.00
2005,06,22,14,17,591.00
2005,06,22,14,18,564.90
2005,06,22,14,19,565.60
2005,06,22,14,20,559.00
2005,06,22,14,21,545.20
2005,06,22,14,22,495.70
2005,06,22,14,23,440.60
2005,06,22,14,24,389.50
2005,06,22,14,25,364.00
2005,06,22,14,26,364.00
2005,06,22,14,27,364.00
2005,06,22,14,28,373.00
2005,06,22,14,29,376.00
2005,06,22,14,30,385.30
2005,06,22,14,31,447.30
2005,06,22,14,32,484.80
2005,06,22,14,33,524.80
2005,06,22,14,34,540.00
2005,06,22,14,35,540.00
2005,06,22,14,36,639.80
2005,06,22,14,37,619.00
2005,06,22,14,38,609.50
2005,06,22,14,39,596.80
2005,06,22,14,40,536.00
2005,06,22,14,41,488.30
2005,06,22,14,42,515.00
2005,06,22,14,44,551.20
2005,06,22,14,45,573.00
2005,06,22,14,46,573.00
2005,06,22,14,47,547.10
2005,06,22,14,48,586.40
2005,06,22,14,49,568.00
2005,06,22,14,50,568.00
2005,06,22,14,51,568.00
2005,06,22,14,52,568.00
2005,06,22,14,53,514.70
2005,06,22,14,54,504.50
2005,06,22,14,55,548.00
2005,06,22,14,56,548.00
2005,06,22,14,57,548.00
2005,06,22,14,58,548.00
2005,06,22,14,59,548.00
2005,06,22,15,00,548.00
2005,06,22,15,01,548.00
2005,06,22,15,02,548.00
2005,06,22,15,03,548.00
2005,06,22,15,04,548.00
2005,06,22,15,05,548.00
2005,06,22,15,06,550.10
2005,06,22,15,07,528.60
2005,06,22,15,08,489.00
2005,06,22,15,09,627.50
2005,06,22,15,10,677.00
2005,06,22,15,11,677.00
2005,06,22,15,12,677.00
2005,06,22,15,13,714.10
2005,06,22,15,14,765.00
2005,06,22,15,15,765.00
2005,06,22,15,16,769.80
2005,06,22,15,17,860.00
2005,06,22,15,18,860.00
2005,06,22,15,19,860.00
2005,06,22,15,20,860.00
2005,06,22,15,21,860.00
2005,06,22,15,22,1093.30
2005,06,22,15,23,1097.70
2005,06,22,15,24,1139.00
2005,06,22,15,25,968.00
2005,06,22,15,26,759.00
2005,06,22,15,27,759.00
2005,06,22,15,28,759.00
2005,06,22,15,29,759.00
2005,06,22,15,30,858.80
2005,06,22,15,31,1044.00
2005,06,22,15,32,1044.00
2005,06,22,15,33,1044.00
2005,06,22,15,34,1044.00
2005,06,22,15,35,1044.00
2005,06,22,15,36,1044.00
2005,06,22,15,37,1044.00
2005,06,22,15,38,942.60
2005,06,22,15,39,888.00
2005,06,22,15,40,885.70
2005,06,22,15,41,863.20
2005,06,22,15,42,858.00
2005,06,22,15,43,860.80
2005,06,22,15,44,872.60
2005,06,22,15,45,895.40
2005,06,22,15,46,894.40
2005,06,22,15,47,847.00
2005,06,22,15,48,856.20
2005,06,22,15,49,823.80
2005,06,22,15,50,786.00
2005,06,22,15,51,389.40
2005,06,22,15,52,366.30
2005,06,22,15,53,535.20
2005,06,22,15,54,959.90
2005,06,22,15,55,1030.50
2005,06,22,15,56,1049.00
2005,06,22,15,57,1045.50
2005,06,22,15,58,979.00
2005,06,22,15,59,789.70
2005,06,22,16,00,343.30
2005,06,22,16,01,338.00
2005,06,22,16,02,359.00
2005,06,22,16,03,366.00
2005,06,22,16,04,468.10
2005,06,22,16,05,845.30
2005,06,22,16,06,822.70
2005,06,22,16,07,808.20
2005,06,22,16,08,805.40
2005,06,22,16,09,802.30
2005,06,22,16,10,797.80
2005,06,22,16,11,781.00
2005,06,22,16,12,776.00
2005,06,22,16,13,768.20
2005,06,22,16,14,765.20
2005,06,22,16,15,765.00
2005,06,22,16,16,765.00
2005,06,22,16,17,765.00
2005,06,22,16,18,765.00
2005,06,22,16,19,765.00
2005,06,22,16,20,785.80
2005,06,22,16,21,759.80
2005,06,22,16,22,751.00
2005,06,22,16,23,751.00
2005,06,22,16,24,746.00
2005,06,22,16,25,743.40
2005,06,22,16,26,744.00
2005,06,22,16,27,740.20
2005,06,22,16,28,742.00
2005,06,22,16,29,737.40
2005,06,22,16,30,738.70
2005,06,22,16,31,745.00
2005,06,22,16,32,745.00
2005,06,22,16,33,740.60
2005,06,22,16,34,744.30
2005,06,22,16,35,744.60
2005,06,22,16,36,744.00
2005,06,22,16,37,744.00
2005,06,22,16,38,744.00
2005,06,22,16,39,727.10
2005,06,22,16,40,722.00
2005,06,22,16,41,721.50
2005,06,22,16,42,742.00
2005,06,22,16,43,756.00
2005,06,22,16,44,748.30
2005,06,22,16,45,747.00
2005,06,22,16,46,747.00
2005,06,22,16,47,747.00
2005,06,22,16,48,747.00
2005,06,22,16,49,747.00
2005,06,22,16,50,749.20
2005,06,22,16,51,776.20
2005,06,22,16,52,722.00
2005,06,22,16,53,722.00
2005,06,22,16,54,722.00
2005,06,22,16,55,485.20
2005,06,22,16,56,422.00
2005,06,22,16,57,481.60
2005,06,22,16,58,699.40
2005,06,22,16,59,684.30
2005,06,22,17,00,673.50
2005,06,22,17,01,665.20
2005,06,22,17,02,656.80
2005,06,22,17,03,651.50
2005,06,22,17,04,648.00
2005,06,22,17,05,643.90
2005,06,22,17,06,639.80
2005,06,22,17,07,635.60
2005,06,22,17,08,632.40